Back to catalog

ONEWEB-0132

AliveCommunicationsPO
NORAD 47278·PAYLOAD·🇬🇧 United Kingdom

Launched Dec 18, 2020 from Vostochny Cosmodrome

Loading…

Next Passes (next 24 hours)

TLE

FreshSource: CelesTrak SupGP

Epoch: Sep 14, 2026, 14:05 UTC

1 47278C 20100W   26257.58698333  .00002596  00000+0  72245-2 0  2578
2 47278  87.8989 332.9211 0001964 100.6258   2.1280 13.12443231    10

Track ONEWEB-0132 in real time with AllMySat

Download on the App Store